This is the latest recevied weather packets stored in our database for station/object WP4PW. If no packets are shown the sender has not sent any weather packets the latest 10 day(s).
| Time | Temp. | Humidity | Pressure | Rain* | Wind** | Luminosity | Snow |
|---|---|---|---|---|---|---|---|
| 1777548020 | 25° C | 95% | 1017 hPa | 0 mm | - | 79 W/m² | - |
| 1777547715 | 25° C | 95% | 1017.1 hPa | 0 mm | - | 75 W/m² | - |
| 1777547412 | 25° C | 96% | 1017 hPa | 0 mm | - | 72 W/m² | - |
| 1777547109 | 25° C | 96% | 1017.1 hPa | 0 mm | - | 65 W/m² | - |
| 1777546806 | 25° C | 96% | 1016.9 hPa | 0 mm | - | 48 W/m² | - |
| 1777546503 | 25° C | 96% | 1017.1 hPa | 0 mm | - | 38 W/m² | - |
| 1777546200 | 25° C | 96% | 1016.7 hPa | 0 mm | - | 34 W/m² | - |
| 1777545896 | 25° C | 96% | 1016.7 hPa | 0 mm | - | 29 W/m² | - |
| 1777545593 | 25° C | 96% | 1016.7 hPa | 0 mm | - | 24 W/m² | - |
| 1777545290 | 25° C | 97% | 1016.7 hPa | 0 mm | - | 21 W/m² | - |
| 1777544988 | 25° C | 97% | 1016.6 hPa | 0 mm | - | 19 W/m² | - |
| 1777544684 | 24.44° C | 97% | 1016.4 hPa | 0 mm | - | 17 W/m² | - |
| 1777544379 | 24.44° C | 97% | 1016.4 hPa | 0 mm | - | 12 W/m² | - |
| 1777544077 | 24.44° C | 97% | 1016.2 hPa | 0 mm | - | 10 W/m² | - |
| 1777543774 | 24.44° C | 97% | 1016.2 hPa | 0 mm | - | 7 W/m² | - |
| 1777543470 | 24.44° C | 97% | 1016.4 hPa | 0 mm | - | 4 W/m² | - |
| 1777543166 | 24.44° C | 97% | 1016.1 hPa | 0 mm | - | 3 W/m² | - |
| 1777542862 | 24.44° C | 97% | 1016.2 hPa | 0 mm | - | 1 W/m² | - |
| 1777542559 | 24.44° C | 97% | 1016.3 hPa | 0 mm | - | 1 W/m² | - |
| 1777542255 | 24.44° C | 97% | 1016.2 hPa | 0 mm | - | 0 W/m² | - |
| 1777541953 | 24.44° C | 97% | 1016.1 hPa | 0 mm | - | 0 W/m² | - |
| 1777541650 | 24.44° C | 97% | 1016.2 hPa | 0 mm | - | 0 W/m² | - |
| 1777541346 | 24.44° C | 97% | 1016.2 hPa | 0 mm | - | 0 W/m² | - |
| 1777541041 | 24.44° C | 96% | 1015.9 hPa | 0 mm | - | 0 W/m² | - |
| 1777540739 | 24.44° C | 97% | 1016.1 hPa | 0 mm | - | 0 W/m² | - |
* Rain latest hour (hover to see other rain measurements)
** Current wind speed in m/s (hover to see current wind gust speed)